This demonstration page uses our WeatherBlox Daily Observations layout. Learn more.

Left ArrowRight Arrow

Hourly Observations for September 24, 2022

Temp ( °F °C ) Dew Point ( °F °C ) Humidity (%) Winds ( mph kmh ) Pressure ( in mb ) Visibility ( mi km ) Precip ( " mm )
12:53 am 00:53 Clear 82 27.8 64 17.8 55 55 SE 9 15 29.94 1014 10 16 0.00 0.00
1:53 am 01:53 Clear 81 27.2 65 18.3 58 58 SE 7 11 29.94 1014 10 16 0.00 0.00
2:53 am 02:53 Mostly Clear 80 26.7 63 17.2 56 56 S 7 11 29.95 1014 10 16 0.00 0.00
3:53 am 03:53 Mostly Clear 80 26.7 64 17.8 58 58 S 7 11 29.94 1014 10 16 0.00 0.00
4:53 am 04:53 Clear 79 26.1 64 17.8 60 60 S 6 9 29.94 1014 10 16 0.00 0.00
5:53 am 05:53 Clear 80 26.7 65 18.3 60 60 S 5 7 29.95 1014 10 16 0.00 0.00
6:53 am 06:53 Clear 80 26.7 66 18.9 62 62 SSW 6 9 29.97 1015 10 16 0.00 0.00
7:53 am 07:53 Sunny 80 26.7 66 18.9 62 62 SSW 7 11 29.99 1016 10 16 0.00 0.00
8:53 am 08:53 Sunny 82 27.8 65 18.3 56 56 S 8 13 30.01 1016 10 16 0.00 0.00
9:53 am 09:53 Sunny 84 28.9 67 19.4 57 57 VRB 6 9 30.01 1016 10 16 0.00 0.00
10:53 am 10:53 Sunny 86 30 67 19.4 53 53 SW 8 13 30.02 1017 10 16 0.00 0.00
11:53 am 11:53 Sunny 89 31.7 68 20 50 50 SW 7 11 30.01 1016 10 16 0.00 0.00
12:53 pm 12:53 Mostly Sunny 91 32.8 65 18.3 42 42 VRB 7 11 29.99 1016 10 16 0.00 0.00
1:53 pm 13:53 Mostly Sunny 93 33.9 60 15.6 34 34 S 9 15 29.96 1015 10 16 0.00 0.00
2:53 pm 14:53 Mostly Sunny 95 35 56 13.3 27 27 SSE 7 11 29.93 1014 10 16 0.00 0.00
3:53 pm 15:53 Mostly Sunny 93 33.9 57 13.9 30 30 S 8 13 29.91 1013 10 16 0.00 0.00
4:53 pm 16:53 Mostly Sunny 94 34.4 58 14.4 30 30 S 6 9 29.89 1012 10 16 0.00 0.00
5:53 pm 17:53 Mostly Sunny 94 34.4 57 13.9 29 29 S 10 17 29.88 1012 10 16 0.00 0.00
6:53 pm 18:53 Mostly Sunny 92 33.3 58 14.4 32 32 SE 9 15 29.89 1012 10 16 0.00 0.00
7:53 pm 19:53 Clear 89 31.7 59 15 36 36 ESE 6 9 29.89 1012 10 16 0.00 0.00
8:53 pm 20:53 Clear 88 31.1 58 14.4 36 36 SSE 8 13 29.91 1013 10 16 0.00 0.00
9:53 pm 21:53 Clear 86 30 60 15.6 42 42 ESE 6 9 29.92 1013 10 16 0.00 0.00
10:53 pm 22:53 Clear 85 29.4 60 15.6 43 43 SSE 10 17 29.91 1013 10 16 0.00 0.00
11:53 pm 23:53 Clear 84 28.9 62 16.7 48 48 S 8 13 29.91 1013 10 16 0.00 0.00

Powered by AerisWeather